Regional Weather Roundup
Issued by NWS Bismarck, ND

Home | Current Version | Previous Version | Text Only | Print | Product List | Glossary On
Versions: 1 2 3 4 5 6 7 8 9 10 11 12 13 14 15 16 17 18 19 20 21 22 23 24 25 26 27 28 29 30 31 32 33 34 35 36 37 38 39 40 41 42 43 44 45 46 47 48 49 50
000
ASUS43 KBIS 200859
RWRBIS

NWR BROADCAST TEXT
NATIONAL WEATHER SERVICE BISMARCK ND
400 AM CDT SAT SEP 20 2014

NOTE: "FAIR" INDICATES FEW OR NO CLOUDS BELOW 12,000 FEET WITH NO
SIGNIFICANT WEATHER AND/OR OBSTRUCTIONS TO VISIBILITY.


CITY           SKY/WX    TMP DP  RH WIND       PRES   REMARKS
WILLISTON      MOCLDY    50  47  89 SW3       29.85F
MINOT          CLEAR     53  49  86 SW12      29.80S
MINOT AFB      NOT AVBL
BISMARCK       MOCLDY    56  52  86 W3        29.86S
DICKINSON      NOT AVBL
GARRISON         N/A     50  49  96 CALM      29.84S
HETTINGER ARPT CLOUDY    54  47  77 W9        29.94R
JAMESTOWN      NOT AVBL
BEACH            N/A     52  48  87 SW9       29.93S
CARRINGTON     FAIR      50  50 100 W5        29.82R
CROSBY         FAIR      50  50 100 SW10      29.82S
HARVEY         FAIR      50  50 100 W7        29.81S
HAZEN          FAIR      48  46  93 SW5       29.87S
LINTON         FAIR      48  48 100 SW6       29.87R
MANDAN         CLOUDY    55  52  88 W7        29.88R
OAKES            N/A     57  57 100 NW8       29.80R
RUGBY          FOG       46  46 100 SW6       29.79S VSB 1/4
TIOGA          FAIR      45  45 100 SW5       29.87F
WATFORD CITY   FAIR      46  45  93 SW6       29.85S
$$

CITY           SKY/WX    TMP DP  RH WIND       PRES   REMARKS
GRAND FORKS    CLEAR     51  49  92 W3        29.74R
GRAND FORKS AF NOT AVBL
DEVILS LAKE    CLEAR     52  46  82 CALM      29.77S
FARGO          CLEAR     56  54  93 NW8       29.76R
CAVALIER       FAIR      52  50  93 NW7       29.75S
GRAFTON        FAIR      52  52 100 NW6       29.75S
GWINNER        SUNNY     59  59 100 W6        29.80R
LANGDON        FAIR      45  45 100 W5        29.76S FOG
ROLLA          FAIR      54  54 100 W8        29.78S
WALHALLA       CLOUDY    54  54 100 NW7       29.76S
$$

CITY           SKY/WX    TMP DP  RH WIND       PRES   REMARKS
ABERDEEN       CLEAR     55  52  89 W3        29.83R
MOBRIDGE       CLEAR     57  53  86 NW8       29.86R
RAPID CITY     MOCLDY    57  47  69 NW7       30.00F
GLASGOW        CLEAR     56  47  71 W10       29.89R
SIDNEY         CLEAR     52  48  87 S7        29.89S
WOLF POINT     CLEAR     50  48  93 SW5       29.88R
MILES CITY     CLEAR     58  45  62 SW3       29.98R
BAKER          PTCLDY    55  46  71 W6        29.96F
$$

CITY           SKY/WX    TMP DP  RH WIND       PRES   REMARKS
BILLINGS       CLEAR     60  41  49 W9        30.09R
GREAT FALLS    PTCLDY    52  42  69 SW9       30.10R
$$




USA.gov is the U.S. government's official web portal to all federal, state and local government web resources and services.